Weather History for Asheville, NC

Change the Weather History Date:

Tuesday, July 3, 2007

  Actual Average Record
Temperature  
Mean Temperature 69 °F 73 °F  
Max Temperature 78 °F 84 °F 93 °F (1970)
Min Temperature 60 °F 63 °F 50 °F (2008)
Degree Days  
Heating Degree Days 0 0  
Month to date heating degree days 0 0  
Since 1 June heating degree days 14  
Since 1 July heating degree days 0 0  
Cooling Degree Days 4 8  
Month to date cooling degree days 14 24  
Year to date cooling degree days 249 259  
Since 1 June cooling degree days 201  
Growing Degree Days 18 (Base 50)    
Moisture  
Dew Point 58 °F    
Average Humidity 73    
Maximum Humidity 96    
Minimum Humidity 50    
Precipitation  
Precipitation 0.00 in 0.14 in 3.21 in (2013)
Month to date precipitation 0.02 0.43  
Year to date precipitation 14.75 23.33  
Snow  
Snow 0.00 in 0.00 in 0.00 in ()
Month to date snowfall 0.0 0.0  
Since 1 June snowfall 0.0  
Since 1 July snowfall 0.0 0.0  
Snow Depth -    
Sea Level Pressure  
Sea Level Pressure 30.20 in    
Wind  
Wind Speed 6 mph (SSE)    
Max Wind Speed 15 mph    
Max Gust Speed 18 mph    
Visibility 8 miles    
Events      
T = Trace of Precipitation, MM = Missing Value Source: NWS Daily Summary

Daily Weather History Graph

Daily Weather History Graph

Search for Another Location

Airport:

Trip Planner

Search our weather history database for the weather conditions in past years. The results will help you decide how hot, cold, wet, or windy it might be!

Date:

Astronomy

Jul. 03, 2007 Rise Set
Actual Time 6:19 AM EDT 8:49 PM EDT
Civil Twilight 5:49 AM EDT 9:18 PM EDT
Nautical Twilight 5:12 AM EDT 9:55 PM EDT
Astronomical Twilight 4:32 AM EDT 10:36 PM EDT
Moon 11:18 PM EDT (7/3) 9:16 AM EDT (7/3)
Length of Visible Light 15h 29m
Length of Day
14h 29m
Waning Gibbous, 89% of the Moon is Illuminated
Jul 3
Waning Gibbous
Jul 7
Last Quarter
Jul 14
New
Jul 22
First Quarter
Jul 29
Full

Hourly Weather History & Observations

Time (EDT) Temp. Dew Point Humidity Pressure Visibility Wind Dir Wind Speed Gust Speed Precip Events Conditions
12:54 AM 61.0 °F 59.0 °F 93% 30.23 in 5.0 mi ESE 3.5 mph - N/A   Scattered Clouds
1:54 AM 62.1 °F 59.0 °F 90% 30.23 in 5.0 mi Calm Calm - N/A   Overcast
2:54 AM 62.1 °F 59.0 °F 90% 30.22 in 5.0 mi Calm Calm - N/A   Overcast
3:54 AM 62.1 °F 57.9 °F 86% 30.20 in 6.0 mi Calm Calm - N/A   Overcast
4:54 AM 61.0 °F 57.9 °F 90% 30.19 in 6.0 mi Calm Calm - N/A   Overcast
5:54 AM 60.1 °F 57.0 °F 90% 30.20 in 5.0 mi Calm Calm - N/A   Partly Cloudy
6:54 AM 61.0 °F 57.9 °F 90% 30.22 in 5.0 mi Calm Calm - N/A   Overcast
7:54 AM 61.0 °F 57.9 °F 90% 30.22 in 5.0 mi SE 3.5 mph - N/A   Mostly Cloudy
8:54 AM 64.0 °F 57.9 °F 80% 30.23 in 7.0 mi SE 4.6 mph - N/A   Scattered Clouds
9:54 AM 66.9 °F 59.0 °F 76% 30.23 in 10.0 mi SSE 8.1 mph - N/A   Overcast
10:46 AM 69.8 °F 57.2 °F 64% 30.28 in 10.0 mi SSE 8.1 mph - N/A   Mostly Cloudy
10:54 AM 71.1 °F 57.9 °F 63% 30.22 in 10.0 mi SSE 9.2 mph - N/A   Overcast
11:54 AM 72.0 °F 55.9 °F 57% 30.21 in 10.0 mi South 9.2 mph - N/A   Mostly Cloudy
12:16 PM 73.4 °F 57.2 °F 57% 30.27 in 10.0 mi SSE 8.1 mph - N/A   Mostly Cloudy
12:54 PM 73.0 °F 55.9 °F 55% 30.20 in 10.0 mi SSE 11.5 mph - N/A   Overcast
1:54 PM 73.9 °F 57.0 °F 55% 30.19 in 10.0 mi SSE 10.4 mph - N/A   Overcast
2:54 PM 75.9 °F 55.9 °F 50% 30.18 in 10.0 mi South 9.2 mph - N/A   Scattered Clouds
3:54 PM 77.0 °F 57.0 °F 50% 30.17 in 10.0 mi South 12.7 mph - N/A   Scattered Clouds
4:54 PM 75.9 °F 57.0 °F 52% 30.16 in 10.0 mi SSE 10.4 mph - N/A   Mostly Cloudy
5:54 PM 75.0 °F 57.9 °F 55% 30.16 in 10.0 mi SSE 10.4 mph - N/A   Clear
6:54 PM 75.0 °F 57.9 °F 55% 30.15 in 10.0 mi SSE 10.4 mph - N/A   Partly Cloudy
7:54 PM 73.0 °F 57.9 °F 59% 30.16 in 10.0 mi SSE 6.9 mph - N/A   Clear
8:54 PM 69.1 °F 57.9 °F 68% 30.17 in 10.0 mi South 5.8 mph - N/A   Clear
9:54 PM 69.1 °F 59.0 °F 70% 30.18 in 10.0 mi SSE 5.8 mph - N/A   Overcast
10:54 PM 66.0 °F 59.0 °F 78% 30.19 in 9.0 mi SE 4.6 mph - N/A   Clear
11:54 PM 64.9 °F 59.0 °F 81% 30.19 in 8.0 mi SE 3.5 mph - N/A   Clear